TimeCDT,TemperatureF,Dew PointF,Humidity,Sea Level PressureIn,VisibilityMPH,Wind Direction,Wind SpeedMPH,Gust SpeedMPH,PrecipitationIn,Events,Conditions,WindDirDegrees,DateUTC
12:54 AM,50.0,46.9,89,30.19,10.0,Calm,Calm,-,N/A,,Clear,0,2013-08-04 05:54:00
1:54 AM,50.0,48.0,93,30.20,10.0,Calm,Calm,-,N/A,,Clear,0,2013-08-04 06:54:00
2:54 AM,48.9,46.0,90,30.21,10.0,Calm,Calm,-,N/A,,Clear,0,2013-08-04 07:54:00
3:54 AM,48.0,46.0,93,30.21,10.0,Calm,Calm,-,N/A,,Clear,0,2013-08-04 08:54:00
4:54 AM,45.0,43.0,93,30.21,10.0,Calm,Calm,-,N/A,,Clear,0,2013-08-04 09:54:00
5:37 AM,46.4,44.6,93,30.21,2.5,Calm,Calm,-,N/A,,Clear,0,2013-08-04 10:37:00
5:44 AM,44.6,42.8,93,30.21,10.0,Calm,Calm,-,N/A,,Clear,0,2013-08-04 10:44:00
5:54 AM,45.0,42.1,90,30.22,10.0,NNW,3.5,-,N/A,,Clear,340,2013-08-04 10:54:00
6:24 AM,44.6,42.8,93,30.21,1.5,Calm,Calm,-,N/A,,Clear,0,2013-08-04 11:24:00
6:38 AM,48.2,46.4,93,30.21,4.0,Calm,Calm,-,N/A,,Clear,0,2013-08-04 11:38:00
6:54 AM,50.0,48.0,93,30.22,10.0,Calm,Calm,-,N/A,,Clear,0,2013-08-04 11:54:00
7:54 AM,55.0,48.9,80,30.23,10.0,NNW,3.5,-,N/A,,Clear,330,2013-08-04 12:54:00
8:54 AM,59.0,50.0,72,30.25,10.0,WNW,4.6,-,N/A,,Clear,300,2013-08-04 13:54:00
9:54 AM,63.0,46.0,54,30.25,10.0,Calm,Calm,-,N/A,,Clear,0,2013-08-04 14:54:00
10:54 AM,66.9,44.1,44,30.23,10.0,North,5.8,-,N/A,,Clear,10,2013-08-04 15:54:00
11:54 AM,66.9,42.1,40,30.24,10.0,Variable,4.6,-,N/A,,Mostly Cloudy,0,2013-08-04 16:54:00
12:54 PM,68.0,43.0,40,30.22,10.0,Variable,6.9,-,N/A,,Mostly Cloudy,0,2013-08-04 17:54:00
1:54 PM,69.1,43.0,39,30.20,10.0,Variable,5.8,-,N/A,,Mostly Cloudy,0,2013-08-04 18:54:00
2:54 PM,71.1,41.0,34,30.19,10.0,Calm,Calm,-,N/A,,Scattered Clouds,0,2013-08-04 19:54:00
3:54 PM,70.0,42.1,36,30.17,10.0,Calm,Calm,-,N/A,,Overcast,0,2013-08-04 20:54:00
4:54 PM,70.0,43.0,38,30.17,10.0,WNW,5.8,-,N/A,,Partly Cloudy,300,2013-08-04 21:54:00
5:54 PM,71.1,43.0,36,30.15,10.0,WNW,5.8,-,N/A,,Clear,290,2013-08-04 22:54:00
6:54 PM,69.1,43.0,39,30.12,10.0,West,3.5,-,N/A,,Clear,260,2013-08-04 23:54:00
7:54 PM,64.0,48.9,58,30.11,10.0,Calm,Calm,-,N/A,,Clear,0,2013-08-05 00:54:00
8:54 PM,57.0,48.0,72,30.11,10.0,Calm,Calm,-,N/A,,Clear,0,2013-08-05 01:54:00
9:54 PM,55.9,50.0,80,30.11,10.0,South,4.6,-,N/A,,Partly Cloudy,170,2013-08-05 02:54:00
10:54 PM,57.0,48.9,74,30.10,10.0,SSE,3.5,-,N/A,,Mostly Cloudy,160,2013-08-05 03:54:00
11:54 PM,57.0,48.9,74,30.10,10.0,South,3.5,-,N/A,,Partly Cloudy,170,2013-08-05 04:54:00